[[{"header":{"parameterUnit":"m.s-1","parameterCategory":1,"la1":30.2991,"la2":30.254,"lo1":-89.0895,"lo2":-89.0444,"dx":0.0017,"dy":0.0017,"nx":28,"ny":28,"refTime":"2023-01-02T15:00:00:Z","depth":0,"parameterNumber":2,"parameterNumberName":"U-component_of_WINDS"},"data":[0,0,0,0,0,0,0,0,0,0,0,0,0,0,0,0,0,0,0,0,0,0,0,0,0,0,0,0,0,0,0,0,0,0,0,0,0,0,0,0,0,0,0,0,0,0,0,0,0,0,0,0,0,0,0,0,0,0,-0.4024,-0.4026,0,-0.4139,-0.414,-0.4141,-0.422,-0.4221,-0.4221,-0.4222,-0.4334,-0.4337,-0.4339,0,0,0,0,0,0,0,0,0,0,0,0,0,-0.387,-0.3872,-0.4024,-0.4026,-0.4027,-0.4139,-0.414,-0.4142,-0.422,-0.4221,-0.4222,-0.4222,-0.4334,-0.4336,-0.4339,0,0,0,0,0,0,0,0,0,0,0,0,0,-0.3955,-0.3873,-0.4024,-0.408,-0.4086,-0.4138,-0.414,-0.4142,-0.422,-0.4221,-0.4222,-0.4223,-0.4333,-0.4336,-0.434,-0.4344,0,0,-0.4351,-0.4353,0,0,0,0,0,0,0,0,-0.395,-0.3961,-0.407,-0.4076,-0.4083,-0.4166,-0.4127,-0.421,-0.422,-0.4169,-0.4222,-0.4223,-0.4277,-0.4286,-0.4305,-0.4349,-0.4354,-0.4351,-0.4353,-0.4355,-0.4356,0,0,0,0,0,0,0,-0.3944,-0.3956,-0.407,-0.4072,-0.408,-0.4098,-0.4111,-0.4143,-0.4216,-0.4173,-0.4179,-0.4192,-0.4281,-0.4301,-0.4308,-0.4356,-0.4351,-0.4354,-0.4357,-0.4358,-0.4409,-0.4408,0,0,0,0,0,0,-0.393,-0.3951,-0.4066,-0.4073,-0.4018,-0.41,-0.4115,-0.4139,-0.4216,-0.4229,-0.4191,-0.4195,-0.4295,-0.4304,-0.4312,-0.4322,-0.4355,-0.4358,-0.4361,-0.441,-0.4409,-0.4408,0,0,0,0,0,0,-0.3927,-0.394,-0.4061,-0.4014,-0.4031,-0.4102,-0.4128,-0.414,-0.4161,-0.423,-0.4243,-0.4199,-0.4296,-0.4307,-0.4336,-0.4327,-0.436,-0.4363,-0.4411,-0.4409,-0.4408,-0.4342,0,0,0,0,0,0,-0.3922,-0.3938,-0.3942,-0.4013,-0.4033,-0.4084,-0.4127,-0.4142,-0.4167,-0.4174,-0.424,-0.4252,-0.4297,-0.433,-0.4339,-0.4333,-0.4366,-0.4412,-0.441,-0.4409,-0.4345,-0.4339,-0.4333,0,0,0,0,0,-0.3916,-0.3917,-0.3941,-0.3955,-0.4039,-0.4083,-0.4094,-0.4148,-0.4166,-0.417,-0.4214,-0.425,-0.4327,-0.4332,-0.4344,-0.4338,-0.4413,-0.4411,-0.4409,-0.4348,-0.434,-0.4333,0,0,0,0,0,0,-0.3841,-0.3928,-0.3955,-0.398,-0.4024,-0.4097,-0.4103,-0.4137,-0.4176,-0.418,-0.4243,-0.4257,-0.4279,-0.4311,-0.4316,-0.4346,-0.4374,-0.4374,-0.4324,-0.4317,-0.4311,-0.4302,-0.4369,0,0,0,0,0,-0.3828,-0.3858,-0.3932,-0.3947,-0.3967,-0.4031,-0.4052,-0.409,-0.4137,-0.4155,-0.4202,-0.4245,-0.4279,-0.43,-0.4335,-0.435,-0.4365,-0.4352,-0.4346,-0.4341,-0.434,-0.435,-0.4344,-0.4402,-0.4402,-0.4402,0,0,-0.38,-0.3851,-0.3867,-0.3933,-0.3971,-0.4,-0.4046,-0.4074,-0.4096,-0.4159,-0.4189,-0.4225,-0.4277,-0.4299,-0.4311,-0.4327,-0.4327,-0.4338,-0.4333,-0.4336,-0.4347,-0.4341,-0.4337,-0.44,-0.4401,-0.4401,0,0,-0.3765,-0.3807,-0.3824,-0.3861,-0.3919,-0.3961,-0.3965,-0.4033,-0.4059,-0.4091,-0.4139,-0.4164,-0.4221,-0.4257,-0.4282,-0.4259,-0.4293,-0.4268,-0.4236,-0.4244,-0.424,-0.4236,-0.4227,-0.4223,-0.4267,-0.4267,-0.4267,0,-0.3722,-0.3769,-0.3827,-0.3853,-0.388,-0.394,-0.3957,-0.399,-0.4055,-0.4072,-0.4089,-0.4162,-0.4202,-0.4232,-0.4227,-0.4246,-0.4251,-0.4261,-0.4236,-0.4233,-0.423,-0.4222,-0.4219,-0.4264,-0.4264,-0.4264,-0.4265,0,-0.3714,-0.3745,-0.3751,-0.3815,-0.3843,-0.3863,-0.3923,-0.3944,-0.3979,-0.4019,-0.4049,-0.4099,-0.4145,-0.4155,-0.4188,-0.419,-0.4198,-0.4225,-0.4254,-0.422,-0.4214,-0.4211,-0.4259,-0.426,-0.4261,-0.4262,0,0,-0.3634,-0.3729,-0.3731,-0.376,-0.3828,-0.3852,-0.3875,-0.3922,-0.3938,-0.3981,-0.4001,-0.4048,-0.4073,-0.4101,-0.4139,-0.4147,-0.4125,-0.4173,-0.4175,-0.4162,-0.4128,-0.4107,-0.4102,-0.4148,-0.4148,-0.4147,-0.4123,0,-0.3608,-0.3654,-0.3707,-0.3734,-0.3763,-0.382,-0.384,-0.3883,-0.392,-0.3949,-0.399,-0.4022,-0.4054,-0.4071,-0.4082,-0.4125,-0.4118,-0.4128,-0.4165,-0.4166,-0.415,-0.4099,-0.4077,-0.4052,-0.4121,-0.4121,-0.4121,0,-0.3584,-0.3625,-0.3655,-0.372,-0.3734,-0.3751,-0.3798,-0.3825,-0.3874,-0.3901,-0.3933,-0.3974,-0.3999,-0.4025,-0.4061,-0.4066,-0.4084,-0.4108,-0.4108,-0.4113,-0.4141,-0.4102,-0.4046,-0.4041,-0.4117,-0.4118,-0.4118,0,-0.3521,-0.3584,-0.3611,-0.3634,-0.3711,-0.3721,-0.3753,-0.3804,-0.3828,-0.3868,-0.3884,-0.3925,-0.3948,-0.3978,-0.4029,-0.4044,-0.4058,-0.4089,-0.408,-0.4078,-0.408,-0.4079,-0.4025,-0.4093,-0.4093,-0.4093,-0.4093,0,-0.3486,-0.3502,-0.3584,-0.3599,-0.3618,-0.3679,-0.3695,-0.3732,-0.3777,-0.38,-0.3851,-0.3871,-0.3937,-0.3965,-0.4004,-0.4027,-0.4037,-0.4058,-0.4068,-0.4053,-0.405,-0.4065,-0.4068,-0.4092,-0.4092,-0.4092,-0.4092,0,-0.342,-0.3475,-0.3507,-0.3577,-0.3595,-0.3606,-0.3666,-0.3682,-0.3723,-0.3752,-0.3762,-0.3825,-0.386,-0.3914,-0.3964,-0.3991,-0.4006,-0.4023,-0.399,-0.3996,-0.3983,-0.3983,-0.3937,-0.3933,-0.4003,-0.4002,-0.4002,0,-0.3393,-0.3407,-0.3479,-0.3499,-0.353,-0.3561,-0.3586,-0.3645,-0.3669,-0.3726,-0.3735,-0.3775,-0.3809,-0.3862,-0.3912,-0.395,-0.3968,-0.3949,-0.3974,-0.3959,-0.3967,-0.3965,-0.3967,-0.3943,-0.3942,-0.3941,-0.3941,0,-0.334,-0.3367,-0.3402,-0.3447,-0.3475,-0.3513,-0.3553,-0.3566,-0.3633,-0.3657,-0.3694,-0.3721,-0.3773,-0.3811,-0.3856,-0.3888,-0.3925,-0.3932,-0.3932,-0.3917,-0.3896,-0.3906,-0.3973,-0.3933,-0.3934,-0.3934,-0.3935,-0.3935,-0.3293,-0.3307,-0.336,-0.3397,-0.3434,-0.347,-0.3489,-0.3532,-0.3565,-0.3613,-0.3646,-0.368,-0.3728,-0.3794,-0.3823,-0.385,-0.3866,-0.3866,-0.3866,-0.3865,-0.3859,-0.3892,-0.3859,-0.3859,-0.386,-0.386,-0.386,0,-0.3242,-0.3279,-0.3312,-0.3367,-0.3396,-0.343,-0.3475,-0.3497,-0.3527,-0.357,-0.3603,-0.3645,-0.3682,-0.3734,-0.3775,-0.3786,-0.3804,-0.3795,-0.3794,-0.38,-0.3843,-0.3839,-0.378,-0.378,-0.378,-0.378,-0.378,-0.378,-0.3219,-0.3245,-0.3278,-0.3322,-0.3359,-0.3394,-0.3417,-0.345,-0.3485,-0.353,-0.3561,-0.3596,-0.3642,-0.3686,-0.3721,-0.3735,-0.3747,-0.3733,-0.3752,-0.379,-0.3798,-0.3805,-0.3801,-0.3735,-0.3735,-0.3707,-0.3707,-0.3707]},{"header":{"parameterUnit":"m.s-1","parameterCategory":1,"la1":30.2991,"la2":30.254,"lo1":-89.0895,"lo2":-89.0444,"dx":0.0017,"dy":0.0017,"nx":28,"ny":28,"refTime":"2023-01-02T15:00:00:Z","depth":0,"parameterNumber":3,"parameterNumberName":"V-component_of_WINDS"},"data":[0,0,0,0,0,0,0,0,0,0,0,0,0,0,0,0,0,0,0,0,0,0,0,0,0,0,0,0,0,0,0,0,0,0,0,0,0,0,0,0,0,0,0,0,0,0,0,0,0,0,0,0,0,0,0,0,0,0,6.1574,6.1574,0,6.1667,6.1668,6.167,6.1657,6.1656,6.1654,6.1653,6.175,6.1754,6.1758,0,0,0,0,0,0,0,0,0,0,0,0,0,6.1386,6.1389,6.1573,6.1575,6.1576,6.1667,6.1669,6.167,6.1658,6.1656,6.1654,6.1652,6.1749,6.1753,6.1758,0,0,0,0,0,0,0,0,0,0,0,0,0,6.1472,6.139,6.1573,6.1581,6.1582,6.1667,6.1669,6.167,6.1658,6.1656,6.1653,6.1651,6.1747,6.1753,6.1759,6.1842,0,0,6.1777,6.178,0,0,0,0,0,0,0,0,6.1467,6.1479,6.1578,6.158,6.1582,6.1648,6.1638,6.1728,6.1659,6.1629,6.1653,6.165,6.1718,6.1726,6.1749,6.1847,6.1851,6.1778,6.1781,6.1784,6.1786,0,0,0,0,0,0,0,6.1461,6.1475,6.1611,6.158,6.1582,6.158,6.159,6.1655,6.1686,6.1632,6.1631,6.1642,6.1719,6.1743,6.1751,6.1852,6.1777,6.1783,6.1787,6.1789,6.2025,6.2028,0,0,0,0,0,0,6.1453,6.147,6.1608,6.1613,6.1518,6.1585,6.1596,6.1629,6.1685,6.1691,6.1644,6.1641,6.1734,6.1744,6.1754,6.1857,6.1784,6.1789,6.1793,6.2023,6.2026,6.2029,0,0,0,0,0,0,6.1449,6.1466,6.1604,6.1542,6.1559,6.1591,6.1628,6.1633,6.1657,6.1694,6.17,6.1664,6.1733,6.1746,6.1821,6.1861,6.1792,6.1798,6.2019,6.2024,6.2027,6.2063,0,0,0,0,0,0,6.1444,6.1464,6.1496,6.1542,6.1562,6.1668,6.1631,6.1636,6.1667,6.1665,6.1714,6.172,6.1732,6.1812,6.1827,6.1868,6.1802,6.2016,6.2021,6.2026,6.2058,6.2068,6.2076,0,0,0,0,0,6.1437,6.1502,6.1497,6.1514,6.1602,6.1671,6.1682,6.1694,6.1671,6.1703,6.1727,6.1718,6.1854,6.182,6.1836,6.188,6.2014,6.202,6.2026,6.2055,6.2066,6.2075,0,0,0,0,0,0,6.1459,6.1508,6.1504,6.1585,6.1624,6.1668,6.171,6.1706,6.1752,6.1748,6.1761,6.1772,6.1849,6.1871,6.1833,6.1964,6.193,6.194,6.1947,6.1958,6.1966,6.196,6.1807,0,0,0,0,0,6.1473,6.1524,6.1564,6.1632,6.1652,6.1677,6.1707,6.1714,6.1754,6.1771,6.18,6.184,6.1892,6.1926,6.1975,6.2061,6.2073,6.2099,6.2108,6.2115,6.2123,6.2173,6.2185,6.2048,6.2048,6.2048,0,0,6.1503,6.1536,6.1567,6.1637,6.1668,6.1721,6.1691,6.1748,6.1788,6.1779,6.1853,6.1876,6.1921,6.2003,6.204,6.2024,6.2164,6.2122,6.2128,6.2133,6.218,6.2193,6.2204,6.2053,6.2052,6.2051,0,0,6.1585,6.1614,6.1675,6.1707,6.1754,6.1771,6.1785,6.1831,6.1846,6.1919,6.1915,6.1962,6.2051,6.2084,6.2113,6.2209,6.2203,6.2225,6.227,6.2318,6.2329,6.2339,6.2375,6.2387,6.2233,6.2233,6.2233,0,6.1616,6.1696,6.1707,6.1765,6.1797,6.1792,6.1854,6.1884,6.1945,6.1968,6.1949,6.2061,6.2091,6.2181,6.2205,6.2228,6.2246,6.222,6.2326,6.2336,6.2345,6.238,6.2393,6.2236,6.2235,6.2235,6.2235,0,6.1733,6.1788,6.1832,6.1891,6.1928,6.1988,6.2009,6.2045,6.2048,6.2067,6.2143,6.2179,6.2237,6.2259,6.2262,6.235,6.2339,6.2323,6.229,6.2361,6.2394,6.2407,6.2239,6.2238,6.2237,6.2237,0,0,6.1832,6.1897,6.1913,6.1941,6.1993,6.2036,6.2096,6.2153,6.2184,6.2226,6.2279,6.2354,6.234,6.2373,6.238,6.2422,6.2498,6.2401,6.2402,6.2419,6.2599,6.2612,6.2627,6.2494,6.2497,6.2499,6.2596,0,6.192,6.2027,6.2039,6.2135,6.2187,6.2183,6.2236,6.2274,6.2294,6.2342,6.2363,6.2418,6.2394,6.2414,6.2455,6.248,6.2535,6.2473,6.2544,6.2546,6.2534,6.2644,6.2657,6.2748,6.2609,6.2611,6.2613,0,6.2038,6.2084,6.2184,6.2231,6.2253,6.23,6.2354,6.2399,6.2443,6.2455,6.2492,6.2494,6.2558,6.2521,6.261,6.2568,6.2597,6.2614,6.2618,6.2626,6.2585,6.2657,6.2777,6.2791,6.2633,6.2631,6.2629,0,6.2102,6.2189,6.2261,6.2284,6.234,6.2373,6.2398,6.244,6.2473,6.252,6.2543,6.2596,6.2626,6.2668,6.2685,6.2657,6.2774,6.2738,6.2787,6.2786,6.2813,6.2811,6.294,6.2829,6.2829,6.2828,6.2828,0,6.22,6.2262,6.2291,6.2335,6.2405,6.2419,6.2489,6.2512,6.2549,6.2599,6.2598,6.2645,6.2664,6.2715,6.2728,6.2801,6.2814,6.2826,6.2829,6.2827,6.2826,6.2848,6.2843,6.2832,6.2831,6.283,6.283,0,6.2284,6.2305,6.2384,6.243,6.2443,6.2493,6.2533,6.2577,6.2596,6.2659,6.2675,6.2705,6.2765,6.2786,6.2857,6.2867,6.2952,6.2949,6.2937,6.2938,6.2987,6.2982,6.3136,6.3158,6.303,6.3031,6.3032,0,6.2346,6.2394,6.2446,6.2479,6.2505,6.2558,6.2593,6.2609,6.2645,6.27,6.2737,6.2796,6.2844,6.2939,6.2968,6.3024,6.3023,6.3073,6.3032,6.3029,6.3027,6.3024,6.303,6.3081,6.3083,6.3084,6.3085,0,6.2455,6.2463,6.2513,6.2568,6.2609,6.2652,6.2694,6.2722,6.2744,6.2785,6.2846,6.2883,6.2957,6.3017,6.3073,6.31,6.3097,6.3097,6.3112,6.3111,6.3103,6.311,6.296,6.3094,6.3093,6.3093,6.3092,6.3092,6.2531,6.2574,6.2618,6.2674,6.2707,6.2747,6.2791,6.2816,6.2867,6.2929,6.2935,6.3001,6.3045,6.3121,6.315,6.3202,6.3189,6.3209,6.3215,6.322,6.3225,6.3094,6.3212,6.3212,6.3212,6.3212,6.3212,0,6.2642,6.267,6.2721,6.278,6.2825,6.2818,6.2864,6.2902,6.296,6.3002,6.3049,6.312,6.3178,6.3212,6.327,6.3305,6.3306,6.332,6.3319,6.3325,6.3233,6.3215,6.3319,6.3319,6.3319,6.3319,6.3319,6.3319,6.2705,6.2778,6.2792,6.2882,6.291,6.2975,6.3002,6.3039,6.3073,6.3152,6.32,6.3221,6.326,6.3321,6.3375,6.3383,6.3405,6.3422,6.3429,6.3342,6.3331,6.3321,6.3305,6.3426,6.3426,6.3518,6.3519,6.3519]}]]